Suffolk, VA

7:39 AM EDT on July 28, 2017 (GMT -0400)
Suffolk Municipal

Weather History for KSFQ - October, 2011

Change the Weather History Date:

Wednesday, October 19, 2011

  Actual Average Record
Temperature  
Mean Temperature 73 °F -  
Max Temperature 78 °F 68 °F 86 °F (2016)
Min Temperature 68 °F 48 °F 31 °F (1948)
Cooling Degree Days 8    
Growing Degree Days 23 (Base 50)    
Moisture  
Dew Point 71 °F    
Average Humidity 92    
Maximum Humidity 100    
Minimum Humidity 83    
Precipitation  
Precipitation 0.64 in - - ()
Sea Level Pressure  
Sea Level Pressure 29.46 in    
Wind  
Wind Speed 6 mph (SE)    
Max Wind Speed 13 mph    
Max Gust Speed 21 mph    
Visibility 8 miles    
Events Rain    
Averages and records for this station are not official NWS values.
T = Trace of Precipitation, MM = Missing Value Source: NWS Daily Summary

Daily Weather History Graph

Daily Weather History Graph

Search for Another Location

Airport or City:

Trip Planner

Search our weather history database for the weather conditions in past years. The results will help you decide how hot, cold, wet, or windy it might be!

Date:

Astronomy

Oct. 19, 2011 Rise Set
Actual Time 7:17 AM EDT 6:25 PM EDT
Civil Twilight 6:50 AM EDT 6:51 PM EDT
Nautical Twilight 6:20 AM EDT 7:21 PM EDT
Astronomical Twilight 5:50 AM EDT 7:51 PM EDT
Moon No Moon Rise 1:42 PM EDT (10/19)
Length of Visible Light 12h 00m
Length of Day
11h 07m
Waning Gibbous, 55% of the Moon is Illuminated
Oct 19
Waning Gibbous
Oct 19
Last Quarter
Oct 26
New
Nov 2
First Quarter
Nov 10
Full

Hourly Weather History & Observations

Time (EDT) Temp. Dew Point Humidity Pressure Visibility Wind Dir Wind Speed Gust Speed Precip Events Conditions
12:15 AM 69.8 °F 68.0 °F 94% 29.71 in 10.0 mi NE 5.8 mph - N/A Rain Light Rain
12:35 AM 69.8 °F 68.0 °F 94% 29.71 in 10.0 mi ENE 3.5 mph - N/A Rain Light Rain
12:55 AM 69.8 °F 68.0 °F 94% 29.69 in 10.0 mi East 3.5 mph - 0.01 in Rain Light Rain
1:15 AM 69.8 °F 68.0 °F 94% 29.67 in 10.0 mi NE 4.6 mph - 0.02 in Rain Light Rain
1:35 AM 69.8 °F 68.0 °F 94% 29.66 in 7.0 mi NE 5.8 mph - 0.06 in Rain Rain
1:55 AM 69.8 °F 68.0 °F 94% 29.65 in 7.0 mi ENE 4.6 mph - 0.12 in Rain Rain
2:15 AM 69.8 °F 69.8 °F 100% 29.62 in 10.0 mi ENE 9.2 mph - 0.05 in Rain Rain
2:35 AM 69.8 °F 68.0 °F 94% 29.60 in 7.0 mi East 8.1 mph - 0.10 in Rain Heavy Rain
3:15 AM 69.8 °F 68.0 °F 94% 29.57 in 7.0 mi East 11.5 mph 17.3 mph 0.04 in Rain Rain
3:35 AM 69.8 °F 68.0 °F 94% 29.54 in 10.0 mi ENE 9.2 mph - 0.15 in Rain Rain
3:55 AM 69.8 °F 68.0 °F 94% 29.53 in 5.0 mi ENE 11.5 mph - 0.20 in Rain Light Rain
4:15 AM 69.8 °F 68.0 °F 94% 29.52 in 5.0 mi East 11.5 mph 18.4 mph 0.01 in Rain Rain
4:35 AM 69.8 °F 68.0 °F 94% 29.52 in 5.0 mi East 8.1 mph - 0.04 in Rain Light Rain
4:55 AM 69.8 °F 69.8 °F 100% 29.52 in 5.0 mi East 5.8 mph - 0.06 in Rain Rain
5:15 AM 69.8 °F 69.8 °F 100% 29.51 in 5.0 mi Calm Calm - 0.03 in   Heavy Drizzle
5:35 AM 69.8 °F 69.8 °F 100% 29.51 in 5.0 mi North 3.5 mph - 0.05 in Rain Heavy Rain
5:55 AM 69.8 °F 69.8 °F 100% 29.51 in 5.0 mi NNW 3.5 mph - 0.08 in Rain Heavy Rain
6:15 AM 69.8 °F 69.8 °F 100% 29.50 in 7.0 mi NNE 5.8 mph - 0.02 in   Drizzle
6:35 AM 69.8 °F 69.8 °F 100% 29.51 in 7.0 mi North 5.8 mph - 0.03 in   Heavy Drizzle
6:55 AM 69.8 °F 68.0 °F 94% 29.50 in 5.0 mi NNW 6.9 mph - 0.04 in Rain Light Rain
7:15 AM 68.0 °F 66.2 °F 94% 29.49 in 7.0 mi North 3.5 mph - N/A Rain Light Rain
7:35 AM 68.0 °F 66.2 °F 94% 29.50 in 10.0 mi Calm Calm - 0.01 in   Mostly Cloudy
8:35 AM 69.8 °F 68.0 °F 94% 29.51 in 7.0 mi Calm Calm - N/A   Overcast
8:55 AM 69.8 °F 69.8 °F 100% 29.51 in 10.0 mi Calm Calm - N/A   Overcast
9:15 AM 69.8 °F 69.8 °F 100% 29.51 in 10.0 mi Calm Calm - N/A   Overcast
9:35 AM 71.6 °F 69.8 °F 94% 29.50 in 10.0 mi SSE 4.6 mph - N/A   Overcast
9:55 AM 71.6 °F 69.8 °F 94% 29.49 in 10.0 mi South 8.1 mph - N/A   Scattered Clouds
10:15 AM 71.6 °F 69.8 °F 94% 29.49 in 10.0 mi South 8.1 mph - N/A   Scattered Clouds
10:35 AM 73.4 °F 69.8 °F 88% 29.48 in 10.0 mi South 6.9 mph - N/A   Scattered Clouds
11:15 AM 73.4 °F 69.8 °F 88% 29.46 in 10.0 mi South 4.6 mph - N/A   Overcast
11:35 AM 73.4 °F 69.8 °F 88% 29.45 in 10.0 mi Calm Calm - N/A   Overcast
12:15 PM 75.2 °F 71.6 °F 89% 29.44 in 10.0 mi SSE 4.6 mph - N/A   Overcast
12:35 PM 75.2 °F 71.6 °F 89% 29.43 in 10.0 mi SE 3.5 mph - N/A   Overcast
1:15 PM 77.0 °F 73.4 °F 89% 29.40 in 5.0 mi SE 6.9 mph - N/A   Overcast
1:35 PM 75.2 °F 73.4 °F 94% 29.39 in 3.0 mi SE 5.8 mph - 0.01 in   Drizzle
1:55 PM 75.2 °F 73.4 °F 94% 29.38 in 4.0 mi SE 4.6 mph - 0.01 in Rain Light Rain
2:15 PM 73.4 °F 71.6 °F 94% 29.37 in 5.0 mi ESE 4.6 mph - N/A   Overcast
2:35 PM 73.4 °F 71.6 °F 94% 29.37 in 4.0 mi SE 10.4 mph 16.1 mph N/A   Light Drizzle
2:55 PM 73.4 °F 71.6 °F 94% 29.36 in 7.0 mi SE 8.1 mph - N/A   Overcast
3:15 PM 73.4 °F 71.6 °F 94% 29.34 in 10.0 mi SE 9.2 mph - N/A   Overcast
3:35 PM 77.0 °F 73.4 °F 89% 29.32 in 10.0 mi SE 9.2 mph - 0.01 in   Scattered Clouds
3:55 PM 78.8 °F 73.4 °F 83% 29.32 in 10.0 mi SE 6.9 mph - 0.01 in   Mostly Cloudy
4:15 PM 78.8 °F 73.4 °F 83% 29.32 in 10.0 mi SSE 8.1 mph - N/A   Overcast
4:35 PM 78.8 °F 73.4 °F 83% 29.31 in 10.0 mi SSE 8.1 mph - N/A   Overcast
4:55 PM 78.8 °F 75.2 °F 89% 29.31 in 10.0 mi South 10.4 mph - N/A   Mostly Cloudy
5:15 PM 78.8 °F 73.4 °F 83% 29.31 in 10.0 mi South 11.5 mph 17.3 mph N/A   Mostly Cloudy
5:35 PM 78.8 °F 75.2 °F 89% 29.31 in 10.0 mi South 9.2 mph - N/A   Mostly Cloudy
5:55 PM 78.8 °F 73.4 °F 83% 29.31 in 10.0 mi South 11.5 mph - N/A   Scattered Clouds
6:15 PM 78.8 °F 73.4 °F 83% 29.31 in 10.0 mi South 8.1 mph - N/A   Scattered Clouds
6:35 PM 77.0 °F 73.4 °F 89% 29.31 in 10.0 mi South 6.9 mph - N/A   Clear
6:55 PM 77.0 °F 73.4 °F 89% 29.32 in 10.0 mi South 6.9 mph - N/A   Clear
7:15 PM 77.0 °F 73.4 °F 89% 29.32 in 10.0 mi South 5.8 mph - N/A   Scattered Clouds
7:35 PM 77.0 °F 73.4 °F 89% 29.32 in 10.0 mi South 11.5 mph - N/A Rain Rain
7:55 PM 77.0 °F 73.4 °F 89% 29.34 in 10.0 mi South 12.7 mph 20.7 mph N/A   Mostly Cloudy
8:15 PM 77.0 °F 73.4 °F 89% 29.34 in 10.0 mi South 12.7 mph 20.7 mph N/A   Scattered Clouds
8:35 PM 75.2 °F 73.4 °F 94% 29.34 in 10.0 mi South 10.4 mph - N/A   Clear
8:55 PM 75.2 °F 73.4 °F 94% 29.35 in 10.0 mi South 9.2 mph - N/A   Scattered Clouds
9:15 PM 75.2 °F 73.4 °F 94% 29.35 in 10.0 mi South 13.8 mph 20.7 mph N/A   Mostly Cloudy
9:35 PM 75.2 °F 73.4 °F 94% 29.36 in 10.0 mi South 15.0 mph 24.2 mph N/A   Mostly Cloudy
10:15 PM 75.2 °F 71.6 °F 89% 29.36 in 10.0 mi South 10.4 mph 16.1 mph N/A   Scattered Clouds
10:35 PM 75.2 °F 71.6 °F 89% 29.36 in 10.0 mi South 11.5 mph - N/A   Scattered Clouds
10:55 PM 73.4 °F 71.6 °F 94% 29.37 in 10.0 mi South 10.4 mph 17.3 mph N/A   Mostly Cloudy
11:15 PM 73.4 °F 69.8 °F 88% 29.37 in 10.0 mi South 12.7 mph 18.4 mph N/A   Mostly Cloudy
11:35 PM 73.4 °F 69.8 °F 88% 29.37 in 10.0 mi SW 9.2 mph - N/A   Mostly Cloudy
11:55 PM 71.6 °F 66.2 °F 83% 29.38 in 7.0 mi SW 17.3 mph 25.3 mph 0.06 in Rain Rain